Regional Weather Roundup
Issued by NWS New Orleans/Baton Rouge, LA

Home | Current Version | Previous Version | Graphics & Text | Print | Product List | Glossary On
Versions: 1 2 3 4 5 6 7 8 9 10 11 12 13 14 15 16 17 18 19 20 21 22 23 24 25 26 27 28 29 30 31 32 33 34 35 36 37 38 39 40 41 42 43 44 45 46 47 48 49 50
527
ASUS44 KLIX 210310
RWRLIX
NEW ORLEANS REGIONAL WEATHER ROUNDUP
NATIONAL WEATHER SERVICE NEW ORLEANS LA
1000 PM CDT SUN APR 20 2014

NOTE: "FAIR" INDICATES FEW OR NO CLOUDS BELOW 12,000 FEET WITH NO
      SIGNIFICANT WEATHER AND/OR OBSTRUCTIONS TO VISIBILITY.
      SKY/WX - SKY CONDITION AND SIGNIFICANT WEATHER.
      TMP - AIR TEMPERATURE.     DP    - DEWPOINT TEMPERATURE.
      RH  - RELATIVE HUMIDITY.   PRES  - PRESSURE.
      HI  - HEAT INDEX.          WCI   - WIND CHILL INDEX.

*  THESE STATIONS ARE NOT NWS OR FAA STATIONS AND ARE NOT UNDER
   NWS QUALITY CONTROL.

LAZ038-040-048-061>063-065>067-069-210400-
SOUTHEAST LOUISIANA

CITY           SKY/WX    TMP DP  RH WIND       PRES   REMARKS
N.O. AUDUBON     N/A     69  62  79 MISG        N/A
N.O. INTL ARPT PTCLDY    68  63  84 SE8       30.12R
N.O. LAKEFRONT CLEAR     66  62  87 SE12      30.14R
N.O. DOWNTOWN*   N/A     68  59  73 SE5       30.14R
SLIDELL        CLEAR     64  59  83 SE6       30.13R
BATON ROUGE    CLEAR     66  55  67 CALM      30.11R
BOOTHVILLE     CLEAR     62  58  86 E7        30.15S
BELLE CHASSE   CLEAR    N/A N/A N/A SE8       30.13R
BOGALUSA*        N/A     67  60  77 SE8       30.15R
GALLIANO*      CLEAR     65  61  86 E5        30.13R
NEW ROADS*       N/A     69  55  60 S3        30.10R
GONZALES*        N/A     64  57  77 CALM      30.11R
HAMMOND*       CLEAR     66  57  72 CALM      30.14R
HOUMA*           N/A     65  61  85 S5        30.12R
PORT FOURCHON* CLEAR     68  63  83 SE12      30.15R

$$

MSZ070-080>082-210400-
SOUTHERN MISSISSIPPI

CITY           SKY/WX    TMP DP  RH WIND       PRES   REMARKS
MCCOMB         CLEAR     63  53  70 CALM      30.12R
GULFPORT       CLEAR     66  58  75 SE8       30.15R
BILOXI         CLEAR     64  59  84 S8        30.15R
PASCAGOULA     CLEAR     59  58  96 CALM      30.16R FOG

$$

COASTAL OBSERVATIONS
LAKE AND NEARSHORE STATIONS

STATION/POSITION TIME  TEMP    WIND        PRES    WAVE
                       AIR SEA DIR/SP/G            HT/PER
                 (UTC) (F)     (DEG/KT/KT) (MB)    (FT/S)
PASCAGOULA       0300   66     150/  7/  9 1020.4
WAVELAND YACHT   0300   65 72  160/ 12/ 13 1020.0
GRAND ISLE       0300   66 68  120/  7/ 12 1021.0
SOUTHWEST PASS   0300   64 59  100/ 13/ 14 1021.1
NEW CANAL        0300   68 69  140/  4/  9 1020.5
SHELL BEACH      0300   64 67  130/  9/ 12 1020.4

OFFSHORE STATIONS

STATION/POSITION TIME  TEMP    WIND        PRES    WAVE
                       AIR SEA DIR/SP/G            HT/PER
                 (UTC) (F)     (DEG/KT/KT) (MB)    (FT/S)
64 S DAUPHIN ISL 0212   63 70   70/ 14/ 17 1021.5

$$




USA.gov is the U.S. government's official web portal to all federal, state and local government web resources and services.